Regional Weather Roundup
Issued by NWS

Home | Current Version | Previous Version | Text Only | Print | Product List | Glossary Off
Versions: 1 2 3 4 5 6 7 8 9 10 11 12 13 14 15 16 17 18 19 20 21 22 23 24 25 26 27 28 29 30 31 32 33 34 35 36 37 38 39 40 41 42 43 44 45 46 47 48 49 50

000
ASUS45 KSLC 271410
RWRUT

UTAH REGIONAL WEATHER ROUNDUP
NATIONAL WEATHER SERVICE SALT LAKE CITY UT
700 AM MST FRI FEB 27 2015

UTZ001>011-023>025-271500-

NORTHERN UTAH

CITY           SKY/WX    TMP DP  RH WIND       PRES   REMARKS
BRIGHAM CITY   CLOUDY    29  25  84 CALM      29.84S
HILL AFB       CLOUDY    30  21  69 E14       29.82S WCI  20
LOGAN          CLOUDY    26  22  84 CALM      29.83S
OGDEN          CLOUDY    32  22  66 SE7       29.82S WCI  26
PROVO AIRPORT  CLOUDY    36  25  64 CALM      29.85S
SALT LAKE CITY CLOUDY    32  25  75 S7        29.82F WCI  26
VERNAL         CLOUDY    22  15  75 N6        29.88R WCI  14
WENDOVER       CLOUDY    36  27  69 CALM      29.83S
HEBER CITY     CLOUDY    23  19  86 CALM      29.83F
WEST JORDAN    CLOUDY    28  27  93 CALM      29.83F

$$

UTZ012>022-026-027-271500-

SOUTHERN/CENTRAL UTAH

CITY           SKY/WX    TMP DP  RH WIND       PRES   REMARKS
BLANDING       CLOUDY    26  26 100 CALM      29.92R
BRYCE CANYON   MOCLDY    11   8  88 W6        29.81F WCI   1
CEDAR CITY     CLOUDY    25  22  88 NE3       29.81S
DELTA          CLOUDY    28  24  86 S6        29.83F WCI  21
HANKSVILLE     CLOUDY    27  27 100 CALM      29.87S VSB<1/4
MILFORD        CLEAR     21  18  88 S5        29.83S WCI  15
MOAB/CYNLANDS  CLOUDY    32  30  92 N5        29.82R WCI  27
PRICE          CLOUDY    23  16  74 N9        29.81S WCI  13
ST GEORGE      PTSUNNY   43  28  56 CALM      29.83S
KANAB          CLOUDY    34  23  64 N6        29.85S WCI  29

$$

REGIONAL REPORTS     COLORADO/ARIZONA

CITY           SKY/WX    TMP DP  RH WIND       PRES   REMARKS
CRAIG, CO      CLOUDY    11   7  84 SW3       29.88S
GRAND JUNCTION FLURRIES  30  28  92 SE3       29.83R
RIFLE          CLOUDY    25  16  68 CALM      29.83R
MONTROSE       CLOUDY    22  16  78 CALM      29.83S
CORTEZ         CLOUDY    28  27  96 CALM      29.85S
PAGE, AZ       CLOUDY    39  31  72 SE5       29.82S
GRAND CANYON   MOCLDY    25  23  92 CALM      29.81S
KINGMAN        PTCLDY    39  27  62 E10       29.77F WCI  32
FLAGSTAFF      CLOUDY    22  17  81 CALM      29.81F

$$

REGIONAL REPORTS    NEVADA/IDAHO/WYOMING

CITY           SKY/WX    TMP DP  RH WIND       PRES   REMARKS
LAS VEGAS, NV  PTCLDY    48  26  42 S8        29.76R
ELY            PTCLDY    18  13  80 S9        29.81S WCI   7
ELKO           PTCLDY    23  21  92 CALM      29.78F FOG
POCATELLO, ID  CLOUDY    29  24  82 N3        29.80F
BURLEY         CLOUDY    32  29  88 CALM      29.78S
EVANSTON, WY   CLOUDY    11   8  88 E10       29.79F WCI  -3
ROCK SPRINGS   PTCLDY     3  -2  79 CALM      29.85F

$$



USA.gov is the U.S. government's official web portal to all federal, state and local government web resources and services.